Regional Weather Roundup
Issued by NWS

Home | Current Version | Previous Version | Graphics & Text | Print | Product List | Glossary Off
Versions: 1 2 3 4 5 6 7 8 9 10 11 12 13 14 15 16 17 18 19 20 21 22 23 24 25 26 27 28 29 30 31 32 33 34 35 36 37 38 39 40 41 42 43 44 45 46 47 48 49 50

000
ASUS43 KTOP 011708
RWRKS

WEATHER ROUNDUP FOR KANSAS
NATIONAL WEATHER SERVICE GOODLAND KS
1200 PM CDT MON SEP 01 2014

NOTE:  "FAIR" INDICATES FEW OR NO CLOUDS BELOW 12,000 FEET WITH NO
SIGNIFICANT WEATHER AND/OR OBSTRUCTIONS TO VISIBILITY.

KSZ001>006-013>018-027>032-041>047-011800-
NORTHWEST KANSAS

CITY           SKY/WX    TMP DP  RH WIND       PRES   REMARKS
GOODLAND       PTSUNNY   70  50  49 VRB6      30.04F
HAYS           CLOUDY    72  57  60 N8        29.96S
HILL CITY      SUNNY     73  54  51 CALM      29.98R
RUSSELL        PTSUNNY   73  60  63 NE10      29.94S
$$

KSZ061>065-074>080-084>089-011800-
SOUTHWEST KANSAS

CITY           SKY/WX    TMP DP  RH WIND       PRES   REMARKS
DODGE CITY     CLOUDY    70  61  73 NE10      29.95R
ELKHART          N/A     75  56  51 NE9         N/A
GARDEN CITY    MOSUNNY   74  58  57 NE10      29.97S
GREAT BEND     CLOUDY    72  63  73 NE8       29.94F
LIBERAL        SUNNY     75  61  60 N13       29.97R
PRATT          CLOUDY    72  61  68 SE9       29.91F
$$

KSZ066>073-081>083-090>101-011800-
SOUTHEAST KANSAS

CITY           SKY/WX    TMP DP  RH WIND       PRES   REMARKS
CHANUTE        CLOUDY    75  64  68 S21G28    29.92R
COFFEYVILLE    CLOUDY    75  65  70 S24G35    29.90F
HUTCHINSON     CLOUDY    76  63  64 E9        29.91F
MEDICINE LODGE   N/A     83  69  62 SE12G20   29.85S
NEWTON         CLOUDY    72  61  68 SE7       29.95S
PARSONS        CLOUDY    74  64  71 SE13G25   29.92F
WICHITA INTL   PTSUNNY   80  66  62 SE14      29.88S
WICHITA JABRA  CLOUDY    77  66  68 SE10      29.89S
WICHITA MCCONL PTSUNNY   79  68  68 SE16      29.89S
WINFIELD       MOSUNNY   79  68  69 SE18G24   29.89S
$$

KSZ007>012-019>026-033>040-048>060-102>105-011800-
NORTHEAST KANSAS

CITY           SKY/WX    TMP DP  RH WIND       PRES   REMARKS
CONCORDIA      PTSUNNY   74  64  71 VRB5      29.94R
EMPORIA        PTSUNNY   76  63  64 S15G22    29.93S
LAWRENCE       PTSUNNY  N/A N/A N/A W12       29.91R
MANHATTAN      PTSUNNY   77  67  71 W7        29.91S
OLATHE IND     PTSUNNY   76  66  71 W12       29.92R
OLATHE EXE     PTSUNNY   75  65  70 W10       29.91R
SALINA         CLOUDY    77  65  66 CALM      29.93R
TOPEKA BILLARD PTSUNNY   78  66  66 W12       29.91S
TOPEKA FORBES  PTSUNNY   78  66  66 W13       29.92R
$$


USA.gov is the U.S. government's official web portal to all federal, state and local government web resources and services.